Weather History for Crane Lake, MN

Change the Weather History Date:

Tuesday, February 5, 2013

  Actual Average Record
Temperature  
Mean Temperature -2 °F -  
Max Temperature 14 °F 22 °F 51 °F (2005)
Min Temperature -18 °F 1 °F -31 °F (2007)
Degree Days  
Heating Degree Days 67    
Moisture  
Dew Point -6 °F    
Average Humidity 75    
Maximum Humidity 92    
Minimum Humidity 56    
Precipitation  
Precipitation 0.06 in - - ()
Sea Level Pressure  
Sea Level Pressure 29.84 in    
Wind  
Wind Speed 1 mph (NNW)    
Max Wind Speed 8 mph    
Max Gust Speed -    
Visibility 7 miles    
Events Snow    
Averages and records for this station are not official NWS values.
T = Trace of Precipitation, MM = Missing Value Source: NWS Daily Summary

Daily Weather History Graph

Daily Weather History Graph

Search for Another Location

Airport:

Trip Planner

Search our weather history database for the weather conditions in past years. The results will help you decide how hot, cold, wet, or windy it might be!

Date:

Astronomy

Feb. 05, 2013 Rise Set
Actual Time 7:32 AM CST 5:16 PM CST
Civil Twilight 6:59 AM CST 5:49 PM CST
Nautical Twilight 6:22 AM CST 6:26 PM CST
Astronomical Twilight 5:45 AM CST 7:02 PM CST
Moon 3:23 AM CST (2/5) 12:24 PM CST (2/5)
Length of Visible Light 10h 50m
Length of Day
9h 43m
Waning Crescent, 26% of the Moon is Illuminated
Feb 5
Waning Crescent
Feb 10
New
Feb 17
First Quarter
Feb 25
Full
Mar 4
Last Quarter

Hourly Weather History & Observations

Time (CST) Temp. Windchill Dew Point Humidity Pressure Visibility Wind Dir Wind Speed Gust Speed Precip Events Conditions
12:12 AM 6.8 °F - 3.2 °F 85% 29.63 in 1.0 mi Calm Calm - N/A Snow Light Snow
12:32 AM 6.8 °F -0.1 °F 3.2 °F 85% 29.63 in 0.8 mi SSE 3.5 mph - 0.02 in Snow Light Snow
12:52 AM 6.8 °F - 3.2 °F 85% 29.62 in 0.8 mi Calm Calm - 0.02 in Snow Light Snow
1:13 AM 6.8 °F - 3.2 °F 85% 29.62 in 1.0 mi Calm Calm - N/A Snow Light Snow
1:32 AM 6.8 °F - 3.2 °F 85% 29.62 in 1.0 mi Calm Calm - 0.01 in Snow Light Snow
1:52 AM 6.8 °F - 1.4 °F 79% 29.62 in 0.8 mi Calm Calm - 0.02 in Snow Light Snow
2:12 AM 5.0 °F - 1.4 °F 85% 29.62 in 0.5 mi Calm Calm - N/A Snow Light Snow
2:32 AM 5.0 °F - 1.4 °F 85% 29.62 in 1.2 mi Calm Calm - 0.01 in Snow Light Snow
2:52 AM 5.0 °F - 1.4 °F 85% 29.62 in 1.5 mi Calm Calm - 0.01 in Snow Light Snow
3:12 AM 5.0 °F - 1.4 °F 85% 29.62 in 0.8 mi Calm Calm - N/A Snow Light Snow
3:32 AM 5.0 °F - 1.4 °F 85% 29.62 in 0.5 mi Calm Calm - 0.01 in Snow Light Snow
3:52 AM 3.2 °F - -0.4 °F 85% 29.63 in 0.2 mi Calm Calm - 0.01 in Snow Snow
4:12 AM 1.4 °F - -2.2 °F 85% 29.64 in 0.5 mi Calm Calm - N/A Snow Snow
4:32 AM -0.4 °F - -5.8 °F 78% 29.64 in 0.5 mi Calm Calm - N/A Snow Light Snow
4:52 AM -2.2 °F - -5.8 °F 85% 29.65 in 1.0 mi Calm Calm - N/A Snow Light Snow
5:12 AM -2.2 °F - -5.8 °F 85% 29.66 in 2.0 mi Calm Calm - N/A Snow Light Snow
5:32 AM -0.4 °F - -5.8 °F 78% 29.67 in 2.0 mi Calm Calm - N/A Snow Light Snow
5:52 AM -4.0 °F - -7.6 °F 85% 29.68 in 2.5 mi Calm Calm - N/A Snow Light Snow
6:12 AM -5.8 °F - -9.4 °F 84% 29.69 in 5.0 mi Calm Calm - N/A Snow Light Snow
6:32 AM -5.8 °F - -9.4 °F 84% 29.71 in 2.0 mi Calm Calm - N/A Snow Light Snow
6:52 AM -9.4 °F - -13.0 °F 84% 29.72 in 4.0 mi Calm Calm - N/A Snow Light Snow
7:12 AM -9.4 °F - -14.8 °F 77% 29.73 in 0.8 mi Calm Calm - N/A Snow Light Snow
7:32 AM -11.2 °F - -16.6 °F 77% 29.75 in 1.2 mi Calm Calm - N/A Snow Light Snow
7:52 AM -13.0 °F - -16.6 °F 84% 29.76 in 7.0 mi Calm Calm - N/A   Scattered Clouds
8:12 AM -13.0 °F - -16.6 °F 84% 29.78 in 3.0 mi Calm Calm - N/A Snow Light Snow
9:12 AM -2.2 °F -14.2 °F -7.6 °F 78% 29.81 in 10.0 mi NW 5.8 mph - N/A   Clear
9:32 AM 1.4 °F -6.2 °F -0.4 °F 92% 29.82 in 10.0 mi North 3.5 mph - N/A   Clear
10:12 AM 6.8 °F -0.1 °F 1.4 °F 79% 29.85 in 10.0 mi NNW 3.5 mph - N/A   Clear
10:32 AM 8.6 °F 0.1 °F 3.2 °F 79% 29.86 in 10.0 mi North 4.6 mph - N/A   Clear
10:52 AM 10.4 °F 2.2 °F 3.2 °F 73% 29.87 in 10.0 mi NW 4.6 mph - N/A   Clear
11:12 AM 12.2 °F 6.1 °F 3.2 °F 67% 29.88 in 10.0 mi North 3.5 mph - N/A   Clear
11:32 AM 12.2 °F 4.3 °F 5.0 °F 73% 29.88 in 10.0 mi NW 4.6 mph - N/A   Clear
11:52 AM 12.2 °F 2.9 °F 5.0 °F 73% 29.89 in 10.0 mi NW 5.8 mph - N/A   Clear
12:12 PM 12.2 °F 2.9 °F 6.8 °F 79% 29.90 in 10.0 mi NNW 5.8 mph - N/A   Clear
12:32 PM 14.0 °F 3.9 °F 5.0 °F 67% 29.90 in 10.0 mi NNW 6.9 mph - N/A   Scattered Clouds
12:52 PM 12.2 °F 2.9 °F 3.2 °F 67% 29.91 in 10.0 mi NW 5.8 mph - N/A   Clear
1:12 PM 12.2 °F 1.7 °F 3.2 °F 67% 29.91 in 10.0 mi NNW 6.9 mph - N/A   Scattered Clouds
1:32 PM 14.0 °F 6.5 °F 3.2 °F 62% 29.91 in 10.0 mi NNW 4.6 mph - N/A   Clear
1:52 PM 14.0 °F 3.9 °F 3.2 °F 62% 29.92 in 10.0 mi NNW 6.9 mph - N/A   Clear
2:12 PM 14.0 °F 3.9 °F 3.2 °F 62% 29.92 in 10.0 mi NW 6.9 mph - N/A   Clear
2:32 PM 12.2 °F 2.9 °F 1.4 °F 62% 29.92 in 10.0 mi NNW 5.8 mph - N/A   Clear
2:52 PM 12.2 °F 0.7 °F 1.4 °F 62% 29.92 in 10.0 mi NNW 8.1 mph - N/A   Clear
3:12 PM 12.2 °F 1.7 °F 1.4 °F 62% 29.94 in 10.0 mi NW 6.9 mph - N/A   Clear
3:32 PM 12.2 °F 2.9 °F 1.4 °F 62% 29.96 in 10.0 mi NW 5.8 mph - N/A   Clear
3:52 PM 12.2 °F 2.9 °F -0.4 °F 57% 29.95 in 10.0 mi NW 5.8 mph - N/A   Clear
4:12 PM 10.4 °F 4.0 °F -0.4 °F 62% 29.96 in 10.0 mi NW 3.5 mph - N/A   Clear
4:32 PM 8.6 °F 2.0 °F -2.2 °F 62% 29.97 in 10.0 mi NW 3.5 mph - N/A   Clear
4:52 PM 6.8 °F -0.1 °F -5.8 °F 56% 29.97 in 10.0 mi NNW 3.5 mph - N/A   Clear
5:12 PM 3.2 °F - -7.6 °F 61% 29.98 in 10.0 mi Calm Calm - N/A   Clear
5:52 PM -5.8 °F - -14.8 °F 65% 29.99 in 10.0 mi Calm Calm - N/A   Clear
6:12 PM -7.6 °F - -16.6 °F 65% 29.99 in 10.0 mi Calm Calm - N/A   Clear
6:32 PM -7.6 °F - -16.6 °F 65% 29.99 in 10.0 mi Calm Calm - N/A   Clear
6:52 PM -9.4 °F - -18.4 °F 65% 29.99 in 10.0 mi Calm Calm - N/A   Clear
7:12 PM -11.2 °F - -18.4 °F 70% 30.00 in 10.0 mi Calm Calm - N/A   Clear
7:52 PM -11.2 °F - -18.4 °F 70% 30.00 in 10.0 mi Calm Calm - N/A   Overcast
8:12 PM -11.2 °F - -18.4 °F 70% 30.01 in 10.0 mi Calm Calm - N/A   Overcast
8:32 PM -11.2 °F - -16.6 °F 77% 30.01 in 10.0 mi Calm Calm - N/A   Overcast
9:13 PM -11.2 °F - -16.6 °F 77% 30.02 in 10.0 mi Calm Calm - N/A   Mostly Cloudy
9:32 PM -13.0 °F - -18.4 °F 77% 30.03 in 10.0 mi Calm Calm - N/A   Clear
9:52 PM -14.8 °F - -20.2 °F 77% 30.03 in 10.0 mi Calm Calm - N/A   Clear
10:12 PM -14.8 °F - -22.0 °F 70% 30.03 in 10.0 mi Calm Calm - N/A   Clear
10:32 PM -16.6 °F - -23.8 °F 70% 30.03 in 10.0 mi Calm Calm - N/A   Clear
10:52 PM -18.4 °F - -23.8 °F 76% 30.04 in 10.0 mi Calm Calm - N/A   Clear
11:12 PM -16.6 °F - -23.8 °F 70% 30.04 in 10.0 mi Calm Calm - N/A   Scattered Clouds
11:32 PM -14.8 °F - -18.4 °F 84% 30.04 in 10.0 mi Calm Calm - N/A   Overcast
11:52 PM -11.2 °F - -16.6 °F 77% 30.03 in 10.0 mi Calm Calm - N/A   Overcast